Weather History for Silver Bay, MN

Change the Weather History Date:

Wednesday, February 27, 2013

  Actual Average Record
Temperature  
Mean Temperature 24 °F -  
Max Temperature 37 °F 25 °F 41 °F (2004)
Min Temperature 12 °F 6 °F -27 °F (2014)
Degree Days  
Heating Degree Days 40    
Moisture  
Dew Point 15 °F    
Average Humidity 68    
Maximum Humidity 93    
Minimum Humidity 41    
Precipitation  
Precipitation 0.00 in - - ()
Sea Level Pressure  
Sea Level Pressure 29.95 in    
Wind  
Wind Speed 4 mph (NNE)    
Max Wind Speed 10 mph    
Max Gust Speed 21 mph    
Visibility 10 miles    
Events      
Averages and records for this station are not official NWS values.
T = Trace of Precipitation, MM = Missing Value Source: NWS Daily Summary

Daily Weather History Graph

Daily Weather History Graph

Search for Another Location

Airport:

Trip Planner

Search our weather history database for the weather conditions in past years. The results will help you decide how hot, cold, wet, or windy it might be!

Date:

Astronomy

Feb. 27, 2013 Rise Set
Actual Time 6:49 AM CST 5:48 PM CST
Civil Twilight 6:18 AM CST 6:19 PM CST
Nautical Twilight 5:42 AM CST 6:54 PM CST
Astronomical Twilight 5:07 AM CST 7:30 PM CST
Moon 8:23 PM CST (2/27) 7:13 AM CST (2/27)
Length of Visible Light 12h 00m
Length of Day
10h 59m
Waning Gibbous, 96% of the Moon is Illuminated
Feb 27
Waning Gibbous
Mar 4
Last Quarter
Mar 11
New
Mar 19
First Quarter
Mar 27
Full

Hourly Weather History & Observations

Time (CST) Temp. Windchill Dew Point Humidity Pressure Visibility Wind Dir Wind Speed Gust Speed Precip Events Conditions
12:13 AM 23.0 °F 17.0 °F 19.4 °F 86% 29.95 in 10.0 mi North 4.6 mph - N/A   Scattered Clouds
12:33 AM 24.8 °F 19.1 °F 19.4 °F 80% 29.94 in 10.0 mi North 4.6 mph - N/A   Clear
12:53 AM 23.0 °F - 17.6 °F 80% 29.94 in 10.0 mi Calm Calm - N/A   Clear
1:13 AM 19.4 °F - 15.8 °F 86% 29.94 in 10.0 mi Calm Calm - N/A   Clear
1:33 AM 17.6 °F - 12.2 °F 79% 29.95 in 10.0 mi Calm Calm - N/A   Clear
1:53 AM 15.8 °F - 12.2 °F 86% 29.95 in 10.0 mi Calm Calm - N/A   Clear
2:13 AM 14.0 °F - 10.4 °F 86% 29.94 in 10.0 mi Calm Calm - N/A   Clear
2:33 AM 14.0 °F - 10.4 °F 86% 29.94 in 10.0 mi Calm Calm - N/A   Clear
2:53 AM 12.2 °F - 8.6 °F 85% 29.93 in 10.0 mi Calm Calm - N/A   Clear
3:13 AM 12.2 °F - 6.8 °F 79% 29.92 in 10.0 mi Calm Calm - N/A   Clear
3:33 AM 12.2 °F - 8.6 °F 85% 29.92 in 10.0 mi Calm Calm - N/A   Clear
3:53 AM 12.2 °F - 8.6 °F 85% 29.92 in 10.0 mi Calm Calm - N/A   Clear
4:13 AM 12.2 °F - 8.6 °F 85% 29.92 in 10.0 mi Calm Calm - N/A   Clear
4:33 AM 12.2 °F - 10.4 °F 92% 29.92 in 10.0 mi Calm Calm - N/A   Clear
4:53 AM 12.2 °F - 8.6 °F 85% 29.91 in 10.0 mi Calm Calm - N/A   Clear
5:13 AM 17.6 °F - 15.8 °F 93% 29.91 in 10.0 mi Calm Calm - N/A   Clear
5:33 AM 15.8 °F - 10.4 °F 79% 29.91 in 10.0 mi Calm Calm - N/A   Clear
6:13 AM 14.0 °F - 10.4 °F 86% 29.91 in 10.0 mi Calm Calm - N/A   Clear
6:33 AM 12.2 °F 6.1 °F 10.4 °F 92% 29.91 in 10.0 mi NNE 3.5 mph - N/A   Clear
6:53 AM 14.0 °F - 10.4 °F 86% 29.91 in 10.0 mi Calm Calm - N/A   Clear
7:33 AM 14.0 °F - 10.4 °F 86% 29.92 in 10.0 mi Calm Calm - N/A   Clear
7:53 AM 17.6 °F - 14.0 °F 86% 29.92 in 10.0 mi Calm Calm - N/A   Scattered Clouds
8:13 AM 19.4 °F 12.8 °F 15.8 °F 86% 29.92 in 10.0 mi NNE 4.6 mph - N/A   Scattered Clouds
8:33 AM 23.0 °F 15.8 °F 19.4 °F 86% 29.92 in 10.0 mi NNE 5.8 mph - N/A   Scattered Clouds
9:13 AM 24.8 °F 17.9 °F 19.4 °F 80% 29.92 in 10.0 mi NNE 5.8 mph - N/A   Clear
9:33 AM 26.6 °F 20.0 °F 19.4 °F 74% 29.93 in 10.0 mi NNE 5.8 mph - N/A   Clear
9:53 AM 26.6 °F 21.2 °F 19.4 °F 74% 29.93 in 10.0 mi NE 4.6 mph - N/A   Clear
10:13 AM 26.6 °F 20.0 °F 17.6 °F 69% 29.94 in 10.0 mi NNE 5.8 mph - N/A   Clear
10:33 AM 28.4 °F 23.3 °F 19.4 °F 69% 29.94 in 10.0 mi NNE 4.6 mph - N/A   Clear
11:13 AM 28.4 °F 22.2 °F 17.6 °F 64% 29.94 in 10.0 mi NNE 5.8 mph - N/A   Clear
11:33 AM 28.4 °F 21.2 °F 17.6 °F 64% 29.94 in 10.0 mi ENE 6.9 mph - N/A   Clear
11:53 AM 28.4 °F 20.4 °F 17.6 °F 64% 29.94 in 10.0 mi NE 8.1 mph - N/A   Clear
12:13 PM 28.4 °F 19.7 °F 15.8 °F 59% 29.94 in 10.0 mi NE 9.2 mph - N/A   Clear
12:33 PM 30.2 °F 23.4 °F 15.8 °F 55% 29.94 in 10.0 mi NE 6.9 mph - N/A   Clear
12:53 PM 30.2 °F 23.4 °F 15.8 °F 55% 29.93 in 10.0 mi NE 6.9 mph - N/A   Clear
1:14 PM 35.6 °F 30.7 °F 15.8 °F 44% 29.93 in 10.0 mi NNE 5.8 mph - N/A   Clear
1:33 PM 35.6 °F 29.2 °F 15.8 °F 44% 29.93 in 10.0 mi NNE 8.1 mph - N/A   Clear
1:53 PM 37.4 °F 32.1 °F 15.8 °F 41% 29.92 in 10.0 mi NNE 6.9 mph 17.3 mph N/A   Clear
2:13 PM 35.6 °F 29.2 °F 15.8 °F 44% 29.92 in 10.0 mi ENE 8.1 mph - N/A   Clear
2:33 PM 35.6 °F 29.9 °F 15.8 °F 44% 29.93 in 10.0 mi NE 6.9 mph - N/A   Clear
2:53 PM 33.8 °F 27.0 °F 17.6 °F 52% 29.93 in 10.0 mi NE 8.1 mph - N/A   Clear
3:13 PM 35.6 °F 29.9 °F 17.6 °F 48% 29.94 in 10.0 mi NNE 6.9 mph - N/A   Clear
3:33 PM 33.8 °F 26.4 °F 17.6 °F 52% 29.94 in 10.0 mi NNE 9.2 mph - N/A   Clear
3:53 PM 33.8 °F 27.7 °F 17.6 °F 52% 29.95 in 10.0 mi North 6.9 mph - N/A   Clear
4:13 PM 33.8 °F 28.6 °F 17.6 °F 52% 29.95 in 10.0 mi NNE 5.8 mph - N/A   Clear
4:33 PM 32.0 °F 26.4 °F 17.6 °F 55% 29.96 in 10.0 mi North 5.8 mph - N/A   Clear
4:53 PM 32.0 °F 28.7 °F 17.6 °F 55% 29.96 in 10.0 mi North 3.5 mph - N/A   Clear
5:13 PM 30.2 °F 22.6 °F 17.6 °F 60% 29.97 in 10.0 mi North 8.1 mph - N/A   Clear
5:33 PM 30.2 °F 24.3 °F 15.8 °F 55% 29.97 in 10.0 mi NNE 5.8 mph - N/A   Clear
5:53 PM 30.2 °F 25.4 °F 15.8 °F 55% 29.98 in 10.0 mi NNE 4.6 mph - N/A   Clear
6:13 PM 30.2 °F 21.3 °F 15.8 °F 55% 29.98 in 10.0 mi NNE 10.4 mph 16.1 mph N/A   Scattered Clouds
6:33 PM 30.2 °F 25.4 °F 15.8 °F 55% 29.99 in 10.0 mi NNE 4.6 mph 16.1 mph N/A   Scattered Clouds
6:53 PM 28.4 °F 23.3 °F 15.8 °F 59% 29.99 in 10.0 mi NNE 4.6 mph - N/A   Scattered Clouds
7:13 PM 28.4 °F 21.2 °F 15.8 °F 59% 29.99 in 10.0 mi NNE 6.9 mph - N/A   Scattered Clouds
7:33 PM 28.4 °F 21.2 °F 15.8 °F 59% 29.99 in 10.0 mi North 6.9 mph - N/A   Scattered Clouds
7:53 PM 28.4 °F 19.7 °F 17.6 °F 64% 29.99 in 10.0 mi NNE 9.2 mph - N/A   Clear
8:13 PM 28.4 °F 19.1 °F 17.6 °F 64% 30.00 in 10.0 mi NNE 10.4 mph 19.6 mph N/A   Clear
8:33 PM 28.4 °F 19.1 °F 15.8 °F 59% 30.01 in 10.0 mi NNE 10.4 mph 18.4 mph N/A   Clear
8:53 PM 28.4 °F 19.7 °F 15.8 °F 59% 30.01 in 10.0 mi NNE 9.2 mph - N/A   Clear
9:13 PM 28.4 °F 19.7 °F 15.8 °F 59% 30.02 in 10.0 mi North 9.2 mph 19.6 mph N/A   Clear
9:33 PM 28.4 °F 20.4 °F 15.8 °F 59% 30.02 in 10.0 mi NNE 8.1 mph 17.3 mph N/A   Clear
9:53 PM 28.4 °F 21.2 °F 15.8 °F 59% 30.02 in 10.0 mi NNE 6.9 mph 18.4 mph N/A   Clear
10:13 PM 26.6 °F 18.2 °F 15.8 °F 64% 30.03 in 10.0 mi North 8.1 mph 17.3 mph N/A   Clear
10:33 PM 26.6 °F 19.1 °F 15.8 °F 64% 30.03 in 10.0 mi North 6.9 mph 16.1 mph N/A   Clear
10:53 PM 26.6 °F 16.8 °F 15.8 °F 64% 30.04 in 10.0 mi North 10.4 mph 20.7 mph N/A   Scattered Clouds
11:13 PM 26.6 °F 18.2 °F 15.8 °F 64% 30.04 in 10.0 mi NE 8.1 mph - N/A   Scattered Clouds
11:33 PM 26.6 °F 16.8 °F 15.8 °F 64% 30.04 in 10.0 mi NE 10.4 mph - N/A   Scattered Clouds
11:53 PM 26.6 °F 16.8 °F 15.8 °F 64% 30.04 in 10.0 mi NE 10.4 mph 17.3 mph N/A   Scattered Clouds